Theta_e
309 307 306 307 307 308 308 308 308 309 309 309 310 312 314 315 313 309 308 310 312 315 315 315 316 317 317 312 308 306 306 309 313 313 313 311 312 313 312 313 312 314 314 314 314
308 307 307 308 309 309 309 309 308 309 309 310 311 312 312 315 313 311 314 314 315 315 315 315 314 314 308 309 307 305 305 310 310 312 312 311 312 312 313 311 313 312 313 314 314
308 308 309 309 309 308 307 308 309 309 310 310 311 312 313 316 310 312 314 315 315 315 316 313 314 310 309 308 309 307 309 309 312 312 310 311 311 312 313 312 311 311 311 310 312
306 308 309 309 308 307 307 308 309 310 310 311 312 314 314 314 311 314 314 316 315 315 315 313 308 309 309 312 308 312 311 312 311 312 310 311 310 311 311 312 310 309 309 309 309
307 306 308 309 308 308 308 309 310 310 311 312 313 319 314 311 313 315 315 315 316 314 313 311 309 309 311 310 310 312 312 311 310 308 308 310 311 311 310 310 309 309 309 309 309
307 308 308 309 309 309 308 309 310 311 311 312 313 317 315 312 315 316 316 315 315 315 313 312 312 310 309 311 311 311 311 311 312 310 310 312 312 310 310 309 309 309 308 308 308
303 308 309 309 309 309 309 309 310 310 311 311 312 318 317 313 315 315 316 315 314 314 313 314 313 312 311 313 310 312 313 310 310 309 310 309 311 311 309 308 309 309 308 308 308
301 307 309 310 310 310 310 310 310 310 310 311 312 319 318 318 315 315 315 314 314 314 314 314 314 311 311 311 309 310 308 309 308 307 309 311 310 309 309 307 310 311 311 310 309
302 304 309 310 311 312 313 314 312 310 310 311 313 313 315 316 315 316 315 314 314 313 313 313 312 308 309 309 307 306 310 310 308 308 308 312 311 310 310 308 310 310 310 310 309
303 303 308 310 311 313 314 317 316 316 313 317 316 312 314 315 315 315 315 314 313 311 310 309 305 307 304 306 310 311 309 308 307 309 309 310 309 308 310 309 309 308 307 307 310
306 303 308 310 311 314 316 315 310 311 313 315 315 315 314 316 314 314 314 313 311 309 311 307 308 309 311 308 309 310 308 308 308 308 311 310 309 309 310 308 308 311 312 315 316
308 305 308 310 312 315 316 313 313 313 313 312 312 314 316 317 315 312 314 312 312 311 310 308 310 309 309 310 310 310 311 310 310 310 311 310 312 310 309 310 312 316 316 317 316
310 305 309 311 314 316 315 315 315 313 312 314 314 315 315 316 315 312 312 311 312 312 311 310 311 311 311 312 313 311 312 311 311 311 311 310 310 312 311 313 317 317 317 316 316
311 306 310 312 316 315 316 315 316 315 319 324 318 316 313 312 313 312 312 312 312 312 311 310 310 312 312 312 311 313 311 311 312 312 311 311 311 309 312 314 318 318 317 317 316
311 307 311 314 316 315 315 315 316 317 321 321 316 314 311 312 312 312 312 312 313 312 311 312 313 312 312 313 313 312 312 313 312 311 310 310 311 311 313 318 319 319 319 317 316
314 308 312 317 317 315 315 316 317 321 327 318 313 312 311 310 313 312 313 311 311 311 311 310 310 312 312 314 313 312 311 309 306 307 310 311 313 311 311 318 320 320 319 319 318
315 309 312 316 314 313 316 314 320 323 317 314 313 311 312 315 315 315 314 313 313 314 314 311 312 313 313 313 311 310 309 310 310 308 309 311 313 312 311 319 321 320 319 317 317
314 316 312 312 312 316 315 314 324 321 315 313 312 312 315 314 314 315 314 313 314 311 311 311 314 314 313 313 313 312 310 309 315 313 312 312 313 312 314 320 320 320 319 317 317
315 319 319 319 318 317 308 317 315 315 314 313 312 313 314 314 315 314 314 314 315 313 316 315 313 312 313 313 312 312 312 309 312 310 310 311 311 311 320 319 320 320 319 317 316
314 319 317 316 317 314 309 316 318 316 315 312 313 315 314 313 316 314 314 315 316 314 311 313 315 313 313 313 312 312 309 312 308 313 316 313 312 311 315 319 319 315 315 314 314
313 314 316 314 313 312 316 318 317 315 315 313 313 313 313 315 315 315 315 315 317 316 313 312 311 314 313 313 314 313 312 312 313 312 315 318 312 310 317 316 315 315 310 311 312
310 314 317 313 309 307 311 312 314 315 315 316 313 312 314 315 315 315 315 314 316 314 315 313 311 313 315 312 311 311 311 311 311 310 312 310 316 311 310 313 315 310 310 310 310
308 309 314 311 310 306 309 313 314 315 316 314 314 313 312 315 312 314 315 315 314 313 314 314 308 312 309 305 309 313 313 310 308 308 311 318 315 310 309 310 312 313 310 310 310
306 310 307 303 303 309 310 312 314 313 313 312 313 312 312 313 313 313 315 314 313 313 315 315 309 311 308 309 308 312 312 311 311 316 317 316 315 313 312 310 311 313 311 311 311
303 307 306 305 304 307 309 311 313 313 311 310 312 312 313 313 312 313 313 312 310 312 311 307 309 310 310 311 311 311 312 312 314 315 318 316 316 315 315 314 312 312 310 309 310
305 305 304 304 305 308 307 310 314 312 311 312 312 311 311 312 311 312 311 310 309 309 309 305 305 309 311 311 313 315 314 314 314 315 315 315 317 315 315 315 313 310 309 309 310
306 305 303 303 306 307 309 311 312 310 310 311 310 309 309 310 309 307 306 306 307 308 306 303 302 313 313 313 314 312 312 314 314 314 317 319 316 315 314 312 311 310 309 309 309
Wind_Speed
12 9 9 9 9 10 10 9 9 8 7 7 7 8 11 13 9 9 6 5 8 15 14 9 9 8 6 4 5 3 5 1 1 2 4 4 5 4 3 2 4 3 3 6 11
11 9 8 8 9 9 9 9 8 8 8 8 7 7 10 8 9 9 7 9 12 14 9 11 5 6 5 5 4 5 4 2 1 3 2 3 2 4 5 7 3 4 5 10 14
11 9 9 9 10 10 10 8 7 7 8 7 7 8 8 3 5 3 7 10 14 13 7 8 5 3 5 2 4 2 3 2 1 2 1 2 1 3 3 7 6 9 10 5 10
11 8 8 9 10 10 9 7 7 7 7 7 9 10 4 2 4 2 6 10 10 12 15 16 7 5 4 4 5 4 2 2 4 2 4 5 3 3 4 7 7 11 8 6 8
13 8 7 7 9 9 7 5 5 6 7 8 12 11 2 5 1 4 6 10 7 7 10 4 8 3 3 3 4 4 2 4 7 7 4 3 6 4 8 10 9 7 9 10 10
14 10 7 7 8 7 6 5 4 4 5 9 12 10 3 7 2 5 7 9 8 7 5 5 3 3 5 1 3 3 4 7 3 5 3 1 2 2 7 6 9 7 10 10 10
15 10 8 8 8 7 6 4 3 3 5 8 12 8 4 1 3 6 8 8 8 7 3 5 5 7 2 1 2 3 6 5 4 7 5 3 3 5 9 8 11 11 10 8 9
15 10 7 7 7 6 6 4 2 2 4 7 9 5 1 3 4 7 7 6 6 8 5 6 4 5 4 3 7 6 6 6 8 6 2 7 8 7 11 9 15 15 13 11 11
14 10 6 6 6 7 8 5 2 2 4 4 3 4 4 5 3 4 5 3 7 6 5 6 6 4 6 5 6 8 4 5 9 5 4 4 10 11 15 9 16 15 16 16 14
14 9 4 5 6 9 9 5 2 1 2 4 3 4 3 2 3 3 3 3 5 4 5 8 6 4 5 5 1 5 4 5 6 6 1 4 8 9 14 7 11 9 10 11 12
17 8 3 3 5 9 8 3 6 4 3 3 3 2 4 6 4 3 3 4 4 7 4 4 6 2 4 6 5 3 4 7 6 7 3 8 7 12 16 8 8 8 8 10 12
19 9 2 2 4 6 7 5 3 3 5 4 5 4 7 4 3 3 7 3 3 0 2 6 3 8 4 4 5 5 5 7 6 4 2 9 14 13 9 5 2 6 9 11 13
17 8 2 2 3 6 9 7 9 2 2 6 4 3 4 8 5 5 8 3 3 2 2 4 5 3 4 3 4 4 4 4 6 4 5 5 7 1 3 3 6 5 5 7 9
15 7 3 2 4 2 3 14 7 2 4 3 1 1 2 2 3 2 8 5 0 4 3 4 3 2 2 5 3 4 4 5 7 4 6 3 7 4 1 5 5 7 8 8 12
15 6 4 4 3 2 6 13 2 3 4 2 1 1 2 3 4 6 1 3 4 4 5 8 2 5 3 3 2 6 4 6 8 4 2 2 1 6 3 3 5 7 8 9 8
15 5 2 2 2 4 13 7 2 5 1 1 2 3 4 6 7 5 2 4 2 2 1 6 3 2 3 2 2 3 4 2 4 3 1 3 3 4 3 4 4 4 7 8 8
13 5 1 1 2 10 13 3 4 4 3 4 3 4 3 5 6 7 5 5 1 5 3 6 4 2 2 3 4 8 7 4 6 4 4 2 4 8 7 4 5 6 8 10 8
14 4 3 5 10 9 5 5 4 2 2 2 4 3 3 6 3 5 4 4 3 3 1 2 7 1 1 4 4 0 5 4 5 3 10 10 7 5 3 4 5 6 7 8 10
12 3 3 8 5 7 5 5 2 2 3 4 4 4 3 2 2 6 2 2 3 2 1 3 5 4 4 2 5 3 3 4 3 1 3 4 6 7 0 2 2 7 6 8 8
9 4 9 9 3 5 5 2 2 1 5 2 1 1 1 2 2 4 3 2 2 2 3 4 7 5 3 2 1 3 6 0 2 4 5 5 5 5 4 5 6 6 8 9 9
6 4 13 6 4 5 3 2 3 2 6 1 3 2 3 2 1 2 3 3 3 2 1 2 4 5 2 5 8 3 1 3 2 4 5 3 6 6 6 8 7 8 9 9 10
5 2 14 4 4 1 2 3 5 4 5 5 3 1 1 1 2 3 4 4 4 1 3 2 2 5 11 10 5 4 6 7 4 6 5 3 12 5 7 2 3 6 7 8 7
2 2 9 7 3 3 5 4 3 7 6 5 5 5 5 1 3 3 3 5 5 5 4 1 2 6 9 6 3 2 3 4 0 1 8 6 11 1 3 6 7 4 6 7 6
3 4 4 5 2 3 4 3 5 7 4 4 4 5 5 4 1 4 3 3 7 5 15 3 4 7 6 11 5 11 16 9 6 6 16 17 25 15 14 8 10 4 6 6 7
4 1 2 4 4 3 2 4 4 6 4 8 4 4 2 3 4 4 3 4 4 7 2 3 4 5 7 14 17 18 19 17 14 19 11 25 17 16 15 15 10 5 5 7 8
3 3 4 1 3 4 5 4 4 5 4 3 3 5 3 5 7 10 3 2 6 5 3 4 4 3 6 8 5 8 16 13 14 17 17 20 21 13 12 4 4 5 7 8 13
4 2 3 2 3 2 1 4 3 4 1 2 1 2 4 4 4 12 12 9 9 8 1 2 1 2 5 5 13 9 5 3 4 4 5 6 7 11 9 5 5 7 8 12 13
Wind_Direction
23 36 54 49 40 33 24 19 19 29 47 72 67 49 16 24 47 54 34 10 1 3 8 24 23 68 67 55 43 102 61 49 109 71 285 325 9 294 295 336 317 19 259 277 341
29 38 45 42 34 27 21 20 26 43 69 74 63 33 4 29 73 57 52 24 7 3 14 30 20 21 45 21 24 74 84 256 226 323 315 287 277 292 354 322 293 298 263 296 320
25 30 28 25 22 18 15 23 40 56 65 64 41 14 359 16 47 348 29 12 8 22 42 38 76 60 64 352 359 146 120 196 223 250 281 230 266 321 288 326 304 294 308 298 306
25 28 23 16 13 10 11 28 49 61 65 48 18 358 12 76 101 330 11 17 31 38 38 32 28 50 62 26 346 81 58 94 271 298 317 314 280 315 197 242 288 296 295 290 290
22 27 23 18 12 10 18 39 56 64 54 30 17 17 80 46 137 37 5 4 22 40 47 70 48 88 77 340 4 52 303 291 282 285 245 333 342 306 318 318 322 309 314 297 299
18 22 23 22 18 20 31 42 56 59 43 22 13 13 63 81 314 343 4 32 34 26 41 67 130 165 127 117 96 289 266 288 284 344 112 59 280 138 279 273 321 324 303 301 299
10 14 17 18 25 35 36 25 35 41 21 11 6 16 57 181 320 330 334 338 0 359 6 46 67 68 97 24 288 288 355 349 26 356 14 262 338 340 287 343 323 317 305 291 276
2 3 11 14 24 35 29 9 352 356 357 360 2 21 219 329 301 300 312 353 6 2 3 15 54 99 51 305 14 29 46 7 307 346 342 67 284 285 295 334 314 313 310 308 306
1 355 3 11 15 12 356 326 304 324 327 344 17 50 299 320 288 289 252 315 353 24 30 86 62 73 18 51 7 12 329 324 317 337 316 63 304 305 311 327 313 314 323 319 317
1 354 353 9 9 7 3 82 120 41 74 44 46 55 333 299 274 258 266 288 35 11 19 38 45 57 38 60 267 277 304 268 259 290 270 300 265 290 297 310 290 312 311 312 315
5 358 356 7 9 9 39 103 21 355 38 200 221 227 280 299 278 255 185 118 57 47 34 16 61 149 226 191 202 216 227 252 257 266 220 256 261 270 280 306 326 341 321 319 316
3 7 47 26 22 22 34 72 103 273 314 251 241 266 269 267 312 275 162 124 87 82 64 21 155 214 210 207 217 218 250 266 283 257 206 280 286 243 272 280 46 329 334 334 325
5 16 81 74 41 46 71 39 342 76 93 303 203 185 226 153 219 254 141 139 176 175 145 157 239 179 184 288 296 264 232 269 252 301 252 297 288 202 301 15 4 359 318 328 332
8 30 86 79 95 59 59 350 347 132 62 304 286 265 123 132 289 230 174 139 113 212 188 226 259 232 262 260 168 299 191 253 274 329 285 70 289 294 287 307 2 343 347 334 340
9 37 92 64 101 74 330 338 349 86 61 291 256 320 60 142 328 8 88 56 215 187 105 250 278 279 267 229 146 228 288 245 264 245 21 270 1 268 218 301 322 327 329 321 318
7 28 91 103 77 0 342 337 112 46 79 53 53 18 38 10 354 325 39 49 94 159 269 247 264 215 216 129 109 302 336 344 51 100 35 229 96 274 259 219 295 294 310 314 317
3 16 28 342 330 342 341 57 41 96 328 354 6 32 84 345 12 19 8 13 357 359 340 336 290 288 110 30 6 33 40 332 344 1 238 239 317 240 263 211 222 264 298 303 304
356 3 356 326 309 341 6 53 76 353 19 341 24 39 81 22 30 354 14 4 355 90 181 89 327 230 151 149 235 149 142 145 294 268 283 282 244 253 236 179 236 273 275 293 330
4 358 37 360 347 342 68 62 162 349 329 1 355 74 1 331 24 19 348 243 214 124 68 300 259 275 242 206 145 191 187 190 219 257 5 241 289 317 70 287 289 273 313 312 310
358 17 17 358 3 32 72 177 152 331 331 40 43 95 304 286 21 31 312 268 14 61 98 287 299 256 293 71 277 189 163 5 19 291 267 284 258 242 282 242 263 312 317 304 311
12 45 6 338 348 48 102 272 297 329 28 266 216 264 231 285 153 245 258 324 18 348 30 245 168 283 6 209 226 281 242 69 142 166 213 290 262 208 222 245 282 297 311 313 321
7 46 356 21 48 23 87 313 293 354 4 358 58 217 191 128 269 257 241 225 32 48 337 315 187 267 257 265 264 173 218 167 158 245 236 202 267 231 259 327 323 298 300 338 332
45 281 355 7 74 354 321 319 341 10 1 17 24 47 8 320 353 240 289 126 54 33 12 307 295 316 320 355 4 107 190 203 94 84 214 248 266 258 287 296 299 320 307 305 342
41 8 338 35 33 75 6 348 338 350 65 359 36 62 25 4 23 284 266 301 352 317 302 248 202 189 218 269 223 283 275 247 195 252 267 258 279 286 293 280 291 293 292 311 353
26 26 165 333 348 10 348 351 2 2 15 21 59 63 351 292 298 255 265 318 324 298 54 97 244 213 242 267 279 273 276 270 246 249 249 273 275 276 295 293 292 274 314 322 323
63 23 1 305 305 334 358 17 35 333 343 8 62 313 281 225 213 282 278 190 235 334 55 13 275 323 277 264 296 288 280 271 253 261 258 264 273 275 274 301 309 316 317 301 308
38 56 105 299 351 56 10 327 2 350 319 57 215 337 307 262 251 265 249 247 244 256 119 240 188 322 267 348 317 295 267 271 269 282 304 287 310 326 300 307 303 305 297 289 291